AirNav   Phillips 66 Aviation Fuel
 
 1583 users online  

1XS1 Dunham Field Airport
Crosby, Texas, USA

GOING TO CROSBY?


FAA INFORMATION EFFECTIVE 19 JULY 2018

Location

FAA Identifier: 1XS1
Lat/Long: 29-56-17.8050N / 095-02-47.3400W
29-56.296750N / 095-02.789000W
29.9382792 / -95.0464833
(estimated)
Elevation: 60 ft. / 18 m (estimated)
Variation: 05E (1995)
From city: 2 miles NE of CROSBY, TX
Time zone: UTC -5 (UTC -6 during Standard Time)
Zip code: 77532

Airport Operations

Airport use: Private use. Permission required prior to landing
Activation date: 12/1997
Control tower: no
ARTCC: HOUSTON CENTER
FSS: MONTGOMERY COUNTY FLIGHT SERVICE STATION
Attendance: DAYLIGHT HOURS
Wind indicator: yes
Segmented circle: no
Lights: ACTVT LIRL RY 09/27 - 122.75.

Airport Communications

WX ASOS at IAH (16 nm W): PHONE 281-443-6397

Nearby radio navigation aids

VOR radial/distance  VOR name  Freq  Var
IAHr089/15.6HUMBLE VORTAC116.6005E
HUBr030/20.8HOBBY VOR/DME117.1005E
DASr229/25.7DAISETTA VORTAC116.9005E
MHFr319/28.2TRINITY VOR/DME113.6007E

 
NDB name  Hdg/Dist  Freq  Var  ID
NIXIN106/9.432605EBVP -... ...- .--.
GALVESTON329/39.320608EGLS --. .-.. ...

Airport Services

Fuel available: 100LL

Runway Information

Runway 9/27

Dimensions: 2700 x 100 ft. / 823 x 30 m
Surface: turf
Runway edge lights: low intensity
RUNWAY 9  RUNWAY 27
Latitude: 29-56.292167N29-56.301333N
Longitude: 095-03.044667W095-02.533333W
Elevation: 58.0 ft.57.0 ft.
Traffic pattern: leftleft
Runway heading: 084 magnetic, 089 true264 magnetic, 269 true
Obstructions: 40 ft. treesnone

Airport Ownership and Management from official FAA records

Ownership: Privately-owned
Owner: RICHARD N. DUNHAM
17806 RAMSEY ROAD
CROSBY, TX 77532
Phone 281-328-3024
Manager: TERRY D. DUNHAM
17818 RAMSEY ROAD
CROSBY, TX 77532
Phone 832-524-0383

Airport Operational Statistics

Aircraft based on the field: 28
Single engine airplanes: 24
Ultralights: 4
    

Additional Remarks

ULTRALIGHT ACTIVITY ON ARPT.
LND ON RY 27 & DEP ON RY 09.

Instrument Procedures

There are no published instrument procedures at 1XS1.

Some nearby airports with instrument procedures:

KHPY - Baytown Airport (10 nm SE)
54T - RWJ Airpark (15 nm SE)
KIAH - George Bush Intercontinental/Houston Airport (16 nm W)
T41 - La Porte Municipal Airport (16 nm S)
T78 - Liberty Municipal Airport (20 nm NE)
 
Loc | Ops | Rwys | IFR | FBO | Links
Com | Nav | Svcs | Stats | Notes


 
Area around 1XS1 (Dunham Field Airport)
 
Road maps at: MapQuest Bing Google
 
Aerial photo
WARNING: Photo may not be current or correct
Aerial photo of 1XS1 (Dunham Field Airport)
Looking toward the northwest

Do you have a better or more recent aerial photo of Dunham Field Airport that you would like to share? If so, please send us your photo.

 
Sectional chart

 
Airport distance calculator
Flying to Dunham Field Airport? Find the distance to fly.

From to 1XS1

Sunrise and sunset
Times for 23-Jul-2018
 Local
(UTC-5)
 Zulu
(UTC)
Morning civil twilight06:0811:08
Sunrise06:3511:35
Sunset20:1801:18
Evening civil twilight20:4501:45

Current date and time
Zulu (UTC)  23-Jul-2018 15:48:59
Local (UTC-5)  23-Jul-2018 10:48:59
 
METAR
KIAH 
17nm W 
231453Z 23008KT 10SM SCT190 SCT250 31/23 A2991 RMK AO2 SLP128 VIRGA SE T03060233 51008
KEFD 
21nm S 
231450Z 23008KT 8SM SCT180 30/24 A2994
KHOU 
22nm SW 
231453Z 24013KT 9SM FEW180 30/24 A2991 RMK AO2 SLP132 T03000239 50007
K6R3 
25nm N 
231535Z AUTO 26005KT 7SM CLR 30/22 A2993 RMK AO2 T03020216
KDWH 
27nm W 
231453Z 27007KT 10SM CLR 29/23 A2992 RMK AO2 SLP129 T02890233 51006
KLVJ 
27nm SW 
231453Z AUTO 27008KT 9SM CLR 29/24 A2993 RMK AO2 SLP136 T02940244 50007
KCXO 
31nm NW 
231453Z 24006G14KT 10SM CLR 29/24 A2994 RMK AO2 SLP133 T02940239 53013
TAF
KIAH 
17nm W 
231138Z 2312/2418 25007KT P6SM BKN010 BKN250 FM231300 26007KT P6SM SCT015 SCT250 FM231800 25008KT P6SM SCT250 FM240200 21005KT P6SM BKN250 FM240700 04005KT P6SM SCT012 BKN100 FM241500 06008KT P6SM BKN100
KEFD 
21nm S 
231200Z 2312/2418 22009KT 9999 BKN010 QNH2986INS BECMG 2314/2315 24012KT 9999 FEW150 QNH2980INS BECMG 2402/2403 20006KT 9999 FEW150 SCT250 QNH2987INS TX37/2321Z TN25/2312Z
NOTAMs
Click for the latest NOTAMs
NOTAMs are issued by the DoD/FAA and will open in a separate window not controlled by AirNav.

 

 
 

Would you like to see your business listed on this page?

 If your business provides an interesting product or service to pilots, flight crews, aircraft, or users of the Dunham Field Airport, you should consider listing it here.  To start the listing process, click on the button below
 
Add a business
 

Other Pages about Dunham Field Airport

Update a link
 
Copyright © AirNav, LLC. All rights reserved. Privacy Policy  Contact